Regional Weather Roundup
Issued by NWS

Home | Current Version | Previous Version | Graphics & Text | Print | Product List | Glossary On
Versions: 1 2 3 4 5 6 7 8 9 10 11 12 13 14 15 16 17 18 19 20 21 22 23 24 25 26 27 28 29 30 31 32 33 34 35 36 37 38 39 40 41 42 43 44 45 46 47 48 49 50
000
ASUS43 KTOP 272159
RWRKS

WEATHER ROUNDUP FOR KANSAS
NATIONAL WEATHER SERVICE GOODLAND KS
500 PM CDT MON MAR 27 2017

NOTE:  "FAIR" INDICATES FEW OR NO CLOUDS BELOW 12,000 FEET WITH NO
SIGNIFICANT WEATHER AND/OR OBSTRUCTIONS TO VISIBILITY.

KSZ001>006-013>018-027>032-041>047-272300-
NORTHWEST KANSAS

CITY           SKY/WX    TMP DP  RH WIND       PRES   REMARKS
GOODLAND       SUNNY     65  35  33 SE9       29.85F
HAYS             N/A     63  42  46 VRB3      29.90
HILL CITY      SUNNY     63  43  48 SE6       29.89F
RUSSELL        SUNNY     63  40  42 NE7       29.89S
$$

KSZ061>065-074>080-084>089-272300-
SOUTHWEST KANSAS

CITY           SKY/WX    TMP DP  RH WIND       PRES   REMARKS
DODGE CITY     SUNNY     67  38  34 E8        29.89F
ELKHART          N/A     66  36  33 S8          N/A
GARDEN CITY    SUNNY     67  35  30 VRB5      29.87F
GREAT BEND     SUNNY     61  43  51 E7        29.90F
LIBERAL        SUNNY     68  34  28 E6        29.88F
$$

KSZ066>073-081>083-090>101-272300-
SOUTHEAST KANSAS

CITY           SKY/WX    TMP DP  RH WIND       PRES   REMARKS
CHANUTE        CLOUDY    56  47  71 NW10      29.91F
COFFEYVILLE    CLOUDY    57  48  72 N7        29.93S
HUTCHINSON     CLOUDY    54  46  74 NE7       29.94R
MEDICINE LODGE   N/A     64  40  41 VRB6      29.90S
NEWTON         CLOUDY    54  47  77 E6        29.94S
PARSONS        CLOUDY    57  48  72 N10       29.93S
WICHITA INTL   CLOUDY    54  46  74 N6        29.94S
WICHITA JABRA  CLOUDY    53  46  77 N7        29.93S
WINFIELD       CLOUDY    54  46  74 N9        29.95S
$$

KSZ007>012-019>026-033>040-048>060-102>105-272300-
NORTHEAST KANSAS

CITY           SKY/WX    TMP DP  RH WIND       PRES   REMARKS
CONCORDIA      CLOUDY    55  47  74 NE5       29.93F
EMPORIA        CLOUDY    55  49  80 NE9       29.92F
LAWRENCE       CLOUDY    56  48  74 NW8       29.93S
MANHATTAN      CLOUDY    56  47  71 NE5       29.93F
OLATHE IND     CLOUDY    52  47  83 N12       29.93R
OLATHE EXE     CLOUDY    51  47  86 N8        29.92R
SALINA         CLOUDY    55  46  71 NE6       29.94F
TOPEKA BILLARD CLOUDY    57  49  74 NW7       29.92F
TOPEKA FORBES  CLOUDY    58  48  69 NE9       29.92F
$$



USA.gov is the U.S. government's official web portal to all federal, state and local government web resources and services.